Regional Weather Roundup
Issued by NWS

Home | Current Version | Previous Version | Text Only | Print | Product List | Glossary Off
Versions: 1 2 3 4 5 6 7 8 9 10 11 12 13 14 15 16 17 18 19 20 21 22 23 24 25 26 27 28 29 30 31 32 33 34 35 36 37 38 39 40 41 42 43 44 45 46 47 48 49 50

000
ASUS45 KCYS 290310
RWRWY

WYOMING REGIONAL WEATHER ROUNDUP
NATIONAL WEATHER SERVICE CHEYENNE WY
900 PM MDT SAT MAY 28 2016

NOTE:  "FAIR" INDICATES FEW OR NO CLOUDS BELOW 12,000 FEET
WITH NO SIGNIFICANT WEATHER AND/OR OBSTRUCTIONS TO VISIBILITY.

WYZ001-290400-
YELLOWSTONE NATIONAL PARK

CITY           SKY/WX    TMP DP  RH WIND       PRES   REMARKS
LK YELLOWSTONE   N/A     41  33  73 CALM      30.21R
W YELLOWSTONE  NOT AVBL

$$
WYZ002>013-054>058-071-098>099-290400-
NORTHERN WYOMING

CITY           SKY/WX    TMP DP  RH WIND       PRES   REMARKS
JACKSON        NOT AVBL
CODY           FAIR      55  41  58 N6        30.06R
GREYBULL       FAIR      65  40  39 NW10      29.98R
WORLAND        FAIR      64  38  38 N5        29.98R
SHERIDAN       FAIR      55  47  74 W7        30.03R
BUFFALO          N/A    N/A N/A N/A MISG      30.08R
GILLETTE       FAIR      50  42  74 W3        30.04R
HULETT         FAIR      59  41  51 NE3       30.05R
NEWCASTLE      FAIR      57  41  54 CALM      30.05R

$$
WYZ014>020-022>026-101>103-290400-
CENTRAL WYOMING

CITY           SKY/WX    TMP DP  RH WIND       PRES   REMARKS
BIG PINEY      FAIR      48  31  51 N9        30.15R
PINEDALE       FAIR      46  30  53 N6        30.16R
DUBOIS         FAIR      48  18  29 W10       30.13R
LANDER         FAIR      58  28  32 SW9       30.02R
RIVERTON       FAIR      60  26  27 W10       30.03R
CASPER         FAIR      58  42  55 E10       30.04R
DOUGLAS          N/A    N/A N/A N/A MISG      30.07R

$$
WYZ021-027>030-104>119-290400-
SOUTHERN WYOMING

CITY           SKY/WX    TMP DP  RH WIND       PRES   REMARKS
EVANSTON       FAIR      51  30  44 W10       30.17R
KEMMERER         N/A     48  32  53 NW7       30.18R
FORT BRIDGER   CLEAR     54  30  40 W8        30.19R
ROCK SPRINGS   FAIR      54  29  38 W10       30.14R
DIXON          MOCLDY    56  38  50 E3        30.18R
RAWLINS        FAIR      54  35  48 SW10      30.14R
SARATOGA       CLOUDY    52  37  58 SW15G28   30.19R
LARAMIE        CLOUDY    47  33  58 W8        30.16R
CHEYENNE       CLOUDY    57  39  51 SW13      30.11R
TORRINGTON     FAIR      58  46  64 E10       30.04R
PINE BLUFFS    FAIR      52  45  76 S7        30.08R

$$



USA.gov is the U.S. government's official web portal to all federal, state and local government web resources and services.